Location: Windsor
(43.2292°N, 89.3015°W)
Time: 01:41:05
(UTC+00:00)

M-CUBED/EXP-1 PRIME - Visible Passes

Search period start: 29 June 2022 00:00
Search period end: 09 July 2022 00:00
Orbit: 423 x 634 km, 101.7° (Epoch: 28 June)

Date Brightness Start Highest point End Pass type
(mag) Time Alt. Az. Time Alt. Az. Time Alt. Az.
29 Jun ? 06:54:01 56° NE 06:54:01 56° NE 06:56:58 10° N visible
30 Jun ? 06:42:47 39° ENE 06:42:47 39° ENE 06:45:50 10° N visible
01 Jul ? 06:31:31 27° ENE 06:31:45 27° ENE 06:34:36 10° N visible
01 Jul ? 08:06:46 14° WNW 08:06:46 14° WNW 08:07:49 10° WNW visible
02 Jul ? 06:20:15 19° ENE 06:20:48 19° ENE 06:23:15 10° NNE visible
02 Jul ? 07:55:30 20° WNW 07:55:30 20° WNW 07:57:17 10° NW visible
03 Jul ? 06:08:59 13° ENE 06:09:52 14° ENE 06:11:43 10° NNE visible
03 Jul ? 07:44:13 30° WNW 07:44:13 30° WNW 07:46:32 10° NW visible
04 Jul ? 05:58:27 10° ENE 05:58:57 10° ENE 05:59:27 10° NE visible
04 Jul ? 07:32:56 45° WNW 07:32:56 45° WNW 07:35:39 10° NNW visible
05 Jul ? 07:21:38 67° NW 07:21:38 67° NW 07:24:40 10° NNW visible
06 Jul ? 07:10:20 62° NE 07:10:20 62° NE 07:13:35 10° NNW visible
07 Jul ? 06:59:01 41° ENE 06:59:07 42° ENE 07:02:25 10° N visible
07 Jul ? 08:34:15 10° W 08:34:15 10° W 08:34:17 10° WNW visible
08 Jul ? 06:47:41 28° ENE 06:48:05 29° ENE 06:51:09 10° N visible
08 Jul ? 08:22:55 15° W 08:22:55 15° W 08:24:17 10° WNW visible
